Location: Chrome
(40.5765°N, 74.2163°W)
Time: 17:20:57
(UTC+00:00)

CENTAUR R/B - Pass Details

Date: 06 December 2019
Orbit: 773 x 1415 km, 63.4° (Epoch: 18 January)

Event Time Altitude Azimuth Distance (km) Brightness Sun altitude
Rises 22:01:59 0° 324° (NW) 4,188 6.0 -6.3°
Reaches altitude 10° 22:04:40 10° 324° (NW) 3,292 5.4 -6.8°
Maximum altitude 22:12:52 83° 239° (WSW) 1,394 3.4 -8.2°
Drops below altitude 10° 22:21:38 10° 152° (SSE) 3,500 5.3 -9.7°
Sets 22:24:34 0° 152° (SSE) 4,464 5.9 -10.2°
